User: anonymous   Login
Location: Unspecified
(0.0000°N, 0.0000°E)
Time: 00:56:32
(UTC+00:00)
Language:

TBA - TO BE ASSIGNED - Orbit

View from above orbital plane
View from above orbital plane
View from above satellite
View from above satellite

Ground track
Ground track

The orbit is defined by the following mean orbital elements,

1 68434U          26145.39063664 +.00000000 +00000-0 +18451-3 0 00005
2 68434  97.4567 104.2400 0003420  73.0846 287.0763 15.18439599    00
Epoch (UTC): 25 May 2026 09:22:31
Eccentricity: 0.0003420
inclination: 97.4567°
perigee height: 508 km
apogee height: 513 km
right ascension of ascending node: 104.2400°
argument of perigee: 73.0846°
revolutions per day: 15.18439599
mean anomaly at epoch: 287.0763°

The dashed part of the orbit path shows where the satellite is in the earth's shadow,  

DLR